TRA64R EHRD-LIRF

Flight info

Callsign TRA64R
Flight time 1h 39m
Altitude 35000
Route LUNIX Z739 MISGO DCT ASBON DCT TUSUK DCT ULNOK L607 ABUKA DCT TEDGO DCT BATUB DCT TIRUL M738 NATAG DCT LORLO DCT GAVRA/N0377F190 Y345 RITEB
Aircraft A321/M-SDE3FGHIRWY/LB1

Departure

Time 2026-05-05 07:57
Airport Rotterdam The Hague Airport (EHRD)

Arrival

Time 2026-05-05 09:36
Airport Rome–Fiumicino Leonardo da Vinci International Airport (LIRF)
Time Latitude Longitude Altitude Speed Heading
2026-05-05 07:28 51.95016 4.43507 1 ft 0 kts 326°
2026-05-05 07:54 51.95030 4.43491 1 ft 6 kts 326°
2026-05-05 07:54 51.95075 4.43536 1 ft 12 kts 55°
2026-05-05 07:54 51.95159 4.43522 1 ft 14 kts 328°
2026-05-05 07:54 51.95233 4.43427 1 ft 13 kts 291°
2026-05-05 07:55 51.95201 4.43297 1 ft 12 kts 239°
2026-05-05 07:55 51.95159 4.43184 1 ft 11 kts 239°
2026-05-05 07:55 51.95121 4.43064 1 ft 14 kts 243°
2026-05-05 07:55 51.95134 4.42930 1 ft 13 kts 314°
2026-05-05 07:56 51.95209 4.42859 2 ft 10 kts
2026-05-05 07:56 51.95254 4.42938 2 ft 10 kts 56°
2026-05-05 07:56 51.95290 4.43028 1 ft 10 kts 57°
2026-05-05 07:56 51.95393 4.43285 0 ft 64 kts 57°
2026-05-05 07:57 51.95785 4.44261 0 ft 139 kts 57°
2026-05-05 07:57 51.96369 4.45731 508 ft 157 kts 57°
2026-05-05 07:57 51.96940 4.47252 1453 ft 160 kts 57°
2026-05-05 07:57 51.97522 4.48834 1977 ft 168 kts 58°
2026-05-05 07:58 51.98158 4.50565 2137 ft 190 kts 57°
2026-05-05 07:58 51.98875 4.52513 2283 ft 213 kts 60°
2026-05-05 07:58 51.99577 4.54791 2544 ft 236 kts 64°
2026-05-05 07:58 52.00439 4.57128 3066 ft 245 kts 44°
2026-05-05 07:59 52.01875 4.58625 3756 ft 250 kts 25°
2026-05-05 07:59 52.03478 4.59820 4451 ft 256 kts 24°
2026-05-05 07:59 52.05075 4.61162 5074 ft 264 kts 37°
2026-05-05 07:59 52.06415 4.63236 5753 ft 268 kts 44°
2026-05-05 08:00 52.07728 4.65428 6433 ft 273 kts 45°
2026-05-05 08:00 52.09055 4.67664 7079 ft 277 kts 45°
2026-05-05 08:00 52.10394 4.69936 7745 ft 280 kts 45°
2026-05-05 08:00 52.11748 4.72234 8415 ft 283 kts 45°
2026-05-05 08:01 52.13120 4.74558 9089 ft 286 kts 45°
2026-05-05 08:01 52.14498 4.76909 9761 ft 289 kts 47°
2026-05-05 08:01 52.15629 4.79582 10334 ft 293 kts 63°
2026-05-05 08:01 52.16356 4.82724 10785 ft 305 kts 72°
2026-05-05 08:02 52.16953 4.86157 10909 ft 326 kts 80°
2026-05-05 08:02 52.16935 4.89947 11043 ft 346 kts 97°
2026-05-05 08:02 52.16605 4.93919 11294 ft 360 kts 97°
2026-05-05 08:02 52.16249 4.97979 11827 ft 364 kts 98°
2026-05-05 08:03 52.15881 5.02085 12425 ft 367 kts 98°
2026-05-05 08:03 52.15511 5.06207 13047 ft 370 kts 97°
2026-05-05 08:03 52.15264 5.08969 13455 ft 372 kts 97°
2026-05-05 08:03 52.14892 5.13162 13986 ft 376 kts 97°
2026-05-05 08:04 52.14518 5.17394 14512 ft 379 kts 98°
2026-05-05 08:04 52.14141 5.21654 15023 ft 382 kts 98°
2026-05-05 08:04 52.13759 5.25952 15513 ft 386 kts 98°
2026-05-05 08:04 52.13369 5.30290 16032 ft 388 kts 98°
2026-05-05 08:05 52.12976 5.34657 16532 ft 391 kts 98°
2026-05-05 08:05 52.12576 5.39070 17010 ft 395 kts 98°
2026-05-05 08:05 52.12170 5.43504 17505 ft 398 kts 98°
2026-05-05 08:05 52.11760 5.47974 18001 ft 401 kts 98°
2026-05-05 08:06 52.11300 5.52462 18402 ft 404 kts 104°
2026-05-05 08:06 52.10427 5.56824 18778 ft 407 kts 114°
2026-05-05 08:06 52.09082 5.60880 19195 ft 408 kts 125°
2026-05-05 08:06 52.07436 5.64653 19561 ft 411 kts 127°
2026-05-05 08:07 52.05716 5.68379 19959 ft 412 kts 132°
2026-05-05 08:07 52.03823 5.71897 20345 ft 415 kts 133°
2026-05-05 08:07 52.01944 5.75387 20770 ft 417 kts 133°
2026-05-05 08:07 52.00032 5.78940 21188 ft 419 kts 133°
2026-05-05 08:08 51.98108 5.82519 21598 ft 421 kts 133°
2026-05-05 08:08 51.96180 5.86113 21987 ft 424 kts 133°
2026-05-05 08:08 51.94241 5.89740 22361 ft 427 kts 133°
2026-05-05 08:08 51.92292 5.93390 22730 ft 429 kts 133°
2026-05-05 08:09 51.90333 5.97060 23107 ft 432 kts 133°
2026-05-05 08:09 51.88353 6.00752 23464 ft 435 kts 133°
2026-05-05 08:09 51.86364 6.04451 23757 ft 438 kts 133°
2026-05-05 08:09 51.84357 6.08168 24066 ft 440 kts 133°
2026-05-05 08:10 51.82334 6.11894 24386 ft 442 kts 134°
2026-05-05 08:10 51.80298 6.15624 24694 ft 443 kts 134°
2026-05-05 08:10 51.78251 6.19362 25009 ft 445 kts 134°
2026-05-05 08:10 51.76192 6.23116 25316 ft 447 kts 134°
2026-05-05 08:11 51.74122 6.26893 25602 ft 449 kts 134°
2026-05-05 08:11 51.72075 6.30623 25903 ft 451 kts 134°
2026-05-05 08:11 51.69993 6.34413 26185 ft 453 kts 135°
2026-05-05 08:11 51.67888 6.38234 26473 ft 455 kts 135°
2026-05-05 08:12 51.65784 6.42049 26760 ft 457 kts 135°
2026-05-05 08:12 51.63665 6.45886 27045 ft 459 kts 135°
2026-05-05 08:12 51.61540 6.49732 27338 ft 460 kts 135°
2026-05-05 08:12 51.59411 6.53590 27679 ft 460 kts 135°
2026-05-05 08:13 51.57284 6.57437 27979 ft 462 kts 135°
2026-05-05 08:13 51.55146 6.61297 28265 ft 463 kts 135°
2026-05-05 08:13 51.52997 6.65167 28536 ft 465 kts 136°
2026-05-05 08:13 51.50835 6.69051 28800 ft 467 kts 136°
2026-05-05 08:14 51.48669 6.72935 29062 ft 468 kts 136°
2026-05-05 08:14 51.46492 6.76832 29366 ft 468 kts 136°
2026-05-05 08:14 51.44315 6.80717 29680 ft 469 kts 136°
2026-05-05 08:14 51.42131 6.84593 30011 ft 467 kts 138°
2026-05-05 08:15 51.39751 6.88097 30299 ft 461 kts 147°
2026-05-05 08:15 51.37123 6.90986 30604 ft 455 kts 153°
2026-05-05 08:15 51.34447 6.93666 30973 ft 452 kts 153°
2026-05-05 08:15 51.31793 6.96333 31380 ft 449 kts 153°
2026-05-05 08:16 51.29156 6.98988 31764 ft 446 kts 153°
2026-05-05 08:16 51.26538 7.01620 32136 ft 444 kts 153°
2026-05-05 08:16 51.23928 7.04237 32491 ft 442 kts 154°
2026-05-05 08:16 51.21322 7.06842 32837 ft 441 kts 154°
2026-05-05 08:17 51.18732 7.09434 33187 ft 439 kts 154°
2026-05-05 08:17 51.16148 7.12020 33533 ft 438 kts 154°
2026-05-05 08:17 51.13606 7.14558 33809 ft 437 kts 154°
2026-05-05 08:17 51.11021 7.17131 33980 ft 439 kts 154°
2026-05-05 08:18 51.08431 7.19703 34206 ft 439 kts 154°
2026-05-05 08:18 51.05841 7.22271 34434 ft 439 kts 154°
2026-05-05 08:18 51.03250 7.24840 34659 ft 438 kts 154°
2026-05-05 08:18 51.00660 7.27408 34843 ft 439 kts 153°
2026-05-05 08:19 50.95486 7.32536 34895 ft 437 kts 153°
2026-05-05 08:19 50.90323 7.37625 34894 ft 437 kts 154°
2026-05-05 08:20 50.85184 7.42673 34895 ft 437 kts 154°
2026-05-05 08:20 50.79986 7.47763 34897 ft 437 kts 154°
2026-05-05 08:21 50.74850 7.52781 34884 ft 437 kts 154°
2026-05-05 08:21 50.69691 7.57875 34890 ft 438 kts 153°
2026-05-05 08:22 50.64597 7.63169 34890 ft 439 kts 152°
2026-05-05 08:22 50.59513 7.68511 34891 ft 438 kts 152°
2026-05-05 08:23 50.54439 7.73781 34904 ft 436 kts 152°
2026-05-05 08:23 50.49360 7.78996 34912 ft 435 kts 153°
2026-05-05 08:24 50.44296 7.84177 34911 ft 434 kts 153°
2026-05-05 08:24 50.39237 7.89353 34898 ft 434 kts 153°
2026-05-05 08:25 50.34184 7.94524 34900 ft 433 kts 153°
2026-05-05 08:25 50.29171 7.99619 34906 ft 432 kts 153°
2026-05-05 08:26 50.24139 8.04724 34911 ft 431 kts 153°
2026-05-05 08:26 50.19113 8.09806 34911 ft 430 kts 153°
2026-05-05 08:27 50.14082 8.14877 34916 ft 430 kts 153°
2026-05-05 08:27 50.09010 8.19795 34916 ft 428 kts 155°
2026-05-05 08:28 50.03877 8.24470 34902 ft 427 kts 155°
2026-05-05 08:28 49.98741 8.29134 34900 ft 427 kts 155°
2026-05-05 08:29 49.93652 8.33806 34900 ft 428 kts 155°
2026-05-05 08:30 49.85975 8.40903 34876 ft 429 kts 151°
2026-05-05 08:30 49.81391 8.46980 34884 ft 436 kts 142°
2026-05-05 08:31 49.76979 8.53420 34891 ft 436 kts 142°
2026-05-05 08:31 49.72273 8.59184 34891 ft 425 kts 156°
2026-05-05 08:32 49.66864 8.62285 34890 ft 413 kts 174°
2026-05-05 08:32 49.61206 8.63837 34885 ft 413 kts 174°
2026-05-05 08:33 49.55543 8.65413 34892 ft 413 kts 174°
2026-05-05 08:33 49.49885 8.66984 34894 ft 413 kts 174°
2026-05-05 08:34 49.44332 8.69421 34892 ft 421 kts 160°
2026-05-05 08:34 49.39003 8.73154 34889 ft 421 kts 160°
2026-05-05 08:35 49.33705 8.76848 34892 ft 420 kts 160°
2026-05-05 08:35 49.28373 8.80540 34891 ft 420 kts 160°
2026-05-05 08:36 49.23041 8.84220 34889 ft 420 kts 160°
2026-05-05 08:36 49.17709 8.87899 34861 ft 420 kts 160°
2026-05-05 08:37 49.12379 8.91571 34867 ft 420 kts 160°
2026-05-05 08:37 49.07041 8.95227 34873 ft 421 kts 160°
2026-05-05 08:38 49.01700 8.98889 34872 ft 421 kts 160°
2026-05-05 08:38 48.96352 9.02543 34874 ft 421 kts 160°
2026-05-05 08:39 48.91009 9.06186 34885 ft 420 kts 160°
2026-05-05 08:39 48.85714 9.09793 34904 ft 420 kts 160°
2026-05-05 08:40 48.80388 9.13411 34908 ft 419 kts 160°
2026-05-05 08:40 48.75056 9.17010 34898 ft 419 kts 160°
2026-05-05 08:41 48.69730 9.20596 34891 ft 418 kts 160°
2026-05-05 08:41 48.64409 9.24175 34901 ft 418 kts 160°
2026-05-05 08:42 48.59057 9.27354 34903 ft 414 kts 165°
2026-05-05 08:42 48.53597 9.30154 34900 ft 414 kts 165°
2026-05-05 08:43 48.48138 9.32947 34884 ft 414 kts 165°
2026-05-05 08:43 48.42684 9.35741 34882 ft 414 kts 165°
2026-05-05 08:44 48.37228 9.38527 34878 ft 414 kts 165°
2026-05-05 08:44 48.31774 9.41294 34880 ft 414 kts 165°
2026-05-05 08:45 48.26323 9.44064 34881 ft 413 kts 165°
2026-05-05 08:45 48.20877 9.46837 34868 ft 413 kts 165°
2026-05-05 08:46 48.15430 9.49590 34870 ft 413 kts 165°
2026-05-05 08:46 48.10014 9.52311 34872 ft 413 kts 165°
2026-05-05 08:47 48.04554 9.55052 34877 ft 414 kts 165°
2026-05-05 08:47 47.99395 9.58951 34879 ft 421 kts 149°
2026-05-05 08:48 47.94573 9.63929 34882 ft 421 kts 150°
2026-05-05 08:48 47.89728 9.68862 34882 ft 421 kts 150°
2026-05-05 08:49 47.84884 9.73783 34886 ft 422 kts 150°
2026-05-05 08:49 47.80039 9.78707 34857 ft 422 kts 150°
2026-05-05 08:50 47.75212 9.83597 34865 ft 423 kts 150°
2026-05-05 08:50 47.70346 9.88517 34871 ft 423 kts 150°
2026-05-05 08:51 47.65475 9.93451 34876 ft 424 kts 150°
2026-05-05 08:51 47.60602 9.98367 34877 ft 424 kts 150°
2026-05-05 08:52 47.55714 10.03273 34875 ft 424 kts 150°
2026-05-05 08:52 47.50826 10.08166 34857 ft 424 kts 150°
2026-05-05 08:53 47.45960 10.13036 34860 ft 425 kts 150°
2026-05-05 08:53 47.41048 10.17936 34869 ft 425 kts 150°
2026-05-05 08:54 47.36964 10.22006 34865 ft 426 kts 150°
2026-05-05 08:54 47.32051 10.26891 34877 ft 426 kts 150°
2026-05-05 08:55 47.27132 10.31772 34883 ft 426 kts 150°
2026-05-05 08:55 47.22216 10.36641 34896 ft 426 kts 150°
2026-05-05 08:56 47.17289 10.41499 34883 ft 426 kts 150°
2026-05-05 08:56 47.12377 10.46334 34901 ft 427 kts 150°
2026-05-05 08:57 47.07431 10.51167 34900 ft 426 kts 153°
2026-05-05 08:57 47.00283 10.55294 34929 ft 417 kts 166°
2026-05-05 08:57 46.89149 10.60365 34967 ft 419 kts 166°
2026-05-05 08:58 46.66820 10.70269 34974 ft 419 kts 167°
2026-05-05 08:58 46.44194 10.79406 35028 ft 423 kts 168°
2026-05-05 08:59 46.21527 10.88565 35044 ft 422 kts 167°
2026-05-05 08:59 45.98910 10.97640 35066 ft 425 kts 168°
2026-05-05 09:00 45.76191 11.06672 35046 ft 423 kts 168°
2026-05-05 09:00 45.68993 11.09513 35028 ft 423 kts 168°
2026-05-05 09:01 45.63312 11.11750 35027 ft 423 kts 168°
2026-05-05 09:01 45.56894 11.14275 35011 ft 424 kts 168°
2026-05-05 09:02 45.34130 11.23177 35018 ft 424 kts 168°
2026-05-05 09:02 45.11293 11.32040 35006 ft 424 kts 168°
2026-05-05 09:03 44.98070 11.37133 35005 ft 426 kts 168°
2026-05-05 09:03 44.92352 11.39333 34999 ft 425 kts 168°
2026-05-05 09:04 44.86641 11.41526 34995 ft 426 kts 168°
2026-05-05 09:04 44.80922 11.43714 34986 ft 426 kts 168°
2026-05-05 09:05 44.75187 11.45901 34970 ft 427 kts 169°
2026-05-05 09:05 44.69441 11.48094 34983 ft 428 kts 169°
2026-05-05 09:06 44.63711 11.50246 34984 ft 429 kts 170°
2026-05-05 09:06 44.57880 11.52036 34980 ft 428 kts 173°
2026-05-05 09:07 44.52026 11.53606 34983 ft 429 kts 173°
2026-05-05 09:07 44.46143 11.55223 34988 ft 431 kts 173°
2026-05-05 09:08 44.40271 11.56911 34981 ft 431 kts 173°
2026-05-05 09:08 44.34397 11.58614 34985 ft 432 kts 173°
2026-05-05 09:09 44.28542 11.60301 34988 ft 432 kts 173°
2026-05-05 09:09 44.22636 11.61984 35004 ft 434 kts 173°
2026-05-05 09:10 44.16727 11.63663 35005 ft 433 kts 173°
2026-05-05 09:10 44.10823 11.65348 35005 ft 433 kts 173°
2026-05-05 09:11 44.04901 11.67036 35016 ft 434 kts 173°
2026-05-05 09:11 43.98985 11.68714 34996 ft 434 kts 173°
2026-05-05 09:12 43.93096 11.70378 35028 ft 435 kts 173°
2026-05-05 09:12 43.87162 11.72055 35014 ft 434 kts 173°
2026-05-05 09:13 43.81229 11.73727 35019 ft 435 kts 173°
2026-05-05 09:13 43.75268 11.75401 34829 ft 439 kts 174°
2026-05-05 09:13 43.72256 11.76241 34070 ft 444 kts 173°
2026-05-05 09:14 43.69211 11.77088 33200 ft 448 kts 173°
2026-05-05 09:14 43.66145 11.77944 32379 ft 451 kts 173°
2026-05-05 09:14 43.63077 11.78804 31837 ft 447 kts 173°
2026-05-05 09:14 43.60036 11.79658 31283 ft 445 kts 173°
2026-05-05 09:15 43.57052 11.80494 30738 ft 443 kts 173°
2026-05-05 09:15 43.54034 11.81340 30173 ft 441 kts 172°
2026-05-05 09:15 43.51033 11.82180 29574 ft 439 kts 172°
2026-05-05 09:15 43.48055 11.83011 29041 ft 435 kts 172°
2026-05-05 09:16 43.45100 11.83833 28498 ft 430 kts 172°
2026-05-05 09:16 43.42179 11.84645 27972 ft 426 kts 172°
2026-05-05 09:16 43.39294 11.85449 27437 ft 422 kts 173°
2026-05-05 09:16 43.36427 11.86245 26924 ft 418 kts 173°
2026-05-05 09:17 43.33591 11.87027 26406 ft 414 kts 172°
2026-05-05 09:17 43.30778 11.87804 25913 ft 410 kts 172°
2026-05-05 09:17 43.27996 11.88576 25418 ft 406 kts 172°
2026-05-05 09:17 43.25239 11.89339 24944 ft 402 kts 172°
2026-05-05 09:18 43.22507 11.90093 24485 ft 398 kts 172°
2026-05-05 09:18 43.19806 11.90837 24019 ft 394 kts 172°
2026-05-05 09:18 43.17133 11.91575 23581 ft 390 kts 172°
2026-05-05 09:18 43.14485 11.92308 23115 ft 385 kts 172°
2026-05-05 09:19 43.11915 11.93017 22700 ft 379 kts 172°
2026-05-05 09:19 43.09346 11.93723 22284 ft 373 kts 172°
2026-05-05 09:19 43.06816 11.94415 21870 ft 368 kts 172°
2026-05-05 09:19 43.04320 11.95099 21462 ft 364 kts 172°
2026-05-05 09:20 43.01850 11.95772 21044 ft 360 kts 172°
2026-05-05 09:20 42.99410 11.96440 20617 ft 356 kts 173°
2026-05-05 09:20 42.96989 11.97105 20226 ft 353 kts 173°
2026-05-05 09:20 42.94614 11.97754 19810 ft 351 kts 174°
2026-05-05 09:21 42.92226 11.98404 19391 ft 350 kts 174°
2026-05-05 09:21 42.89844 11.99052 18969 ft 348 kts 173°
2026-05-05 09:21 42.87472 11.99699 18554 ft 347 kts 173°
2026-05-05 09:21 42.85103 12.00345 18099 ft 347 kts 173°
2026-05-05 09:22 42.82742 12.00991 17669 ft 344 kts 173°
2026-05-05 09:22 42.80407 12.01628 17255 ft 341 kts 173°
2026-05-05 09:22 42.78090 12.02259 16852 ft 338 kts 173°
2026-05-05 09:22 42.75797 12.02882 16449 ft 334 kts 173°
2026-05-05 09:23 42.73524 12.03498 16063 ft 332 kts 173°
2026-05-05 09:23 42.71265 12.04109 15668 ft 330 kts 173°
2026-05-05 09:23 42.69022 12.04716 15274 ft 327 kts 173°
2026-05-05 09:23 42.66790 12.05318 14883 ft 326 kts 173°
2026-05-05 09:24 42.64601 12.05911 14501 ft 324 kts 173°
2026-05-05 09:24 42.62395 12.06508 14111 ft 323 kts 173°
2026-05-05 09:24 42.60191 12.07102 13702 ft 321 kts 173°
2026-05-05 09:24 42.58006 12.07690 13289 ft 319 kts 174°
2026-05-05 09:25 42.55839 12.08275 12900 ft 316 kts 174°
2026-05-05 09:25 42.53686 12.08859 12510 ft 314 kts 174°
2026-05-05 09:25 42.51548 12.09441 12111 ft 312 kts 174°
2026-05-05 09:25 42.49427 12.10015 11716 ft 310 kts 173°
2026-05-05 09:26 42.47341 12.10579 11508 ft 302 kts 174°
2026-05-05 09:26 42.45292 12.11127 10962 ft 306 kts 174°
2026-05-05 09:26 42.43205 12.11682 10552 ft 305 kts 173°
2026-05-05 09:26 42.41152 12.12232 10419 ft 295 kts 173°
2026-05-05 09:27 42.39169 12.12768 10309 ft 287 kts 175°
2026-05-05 09:27 42.37226 12.13295 10179 ft 285 kts 174°
2026-05-05 09:27 42.35277 12.13819 10047 ft 286 kts 173°
2026-05-05 09:27 42.33294 12.14347 9356 ft 295 kts 173°
2026-05-05 09:28 42.31274 12.14883 8712 ft 296 kts 173°
2026-05-05 09:28 42.29239 12.15426 8089 ft 301 kts 172°
2026-05-05 09:28 42.27195 12.15974 7460 ft 296 kts 172°
2026-05-05 09:28 42.25227 12.16504 6870 ft 289 kts 172°
2026-05-05 09:29 42.23281 12.17025 6451 ft 276 kts 172°
2026-05-05 09:29 42.21430 12.17519 6396 ft 269 kts 173°
2026-05-05 09:29 42.19603 12.18002 6293 ft 267 kts 173°
2026-05-05 09:29 42.17784 12.18483 6177 ft 266 kts 173°
2026-05-05 09:30 42.15975 12.18964 6070 ft 265 kts 173°
2026-05-05 09:30 42.14157 12.19223 5890 ft 262 kts 184°
2026-05-05 09:30 42.12323 12.19201 5506 ft 265 kts 184°
2026-05-05 09:30 42.10474 12.19172 5146 ft 267 kts 184°
2026-05-05 09:31 42.08624 12.19142 4793 ft 264 kts 184°
2026-05-05 09:31 42.06800 12.19112 4444 ft 260 kts 183°
2026-05-05 09:31 42.05002 12.19085 4104 ft 256 kts 182°
2026-05-05 09:31 42.03232 12.19059 3759 ft 253 kts 182°
2026-05-05 09:32 42.01492 12.19118 3455 ft 246 kts 173°
2026-05-05 09:32 41.99892 12.19678 3167 ft 230 kts 165°
2026-05-05 09:32 41.98456 12.20315 2909 ft 210 kts 165°
2026-05-05 09:32 41.97100 12.20898 2622 ft 201 kts 165°
2026-05-05 09:33 41.95817 12.21440 2364 ft 185 kts 165°
2026-05-05 09:33 41.94650 12.21931 2137 ft 165 kts 165°
2026-05-05 09:33 41.93604 12.22371 1905 ft 151 kts 165°
2026-05-05 09:33 41.92624 12.22782 1716 ft 144 kts 163°
2026-05-05 09:34 41.91679 12.23178 1515 ft 140 kts 163°
2026-05-05 09:34 41.90752 12.23567 1328 ft 139 kts 162°
2026-05-05 09:34 41.89830 12.23953 1127 ft 138 kts 161°
2026-05-05 09:34 41.88927 12.24332 955 ft 137 kts 162°
2026-05-05 09:35 41.88009 12.24717 753 ft 140 kts 162°
2026-05-05 09:35 41.86167 12.25488 426 ft 136 kts 160°
2026-05-05 09:35 41.85260 12.25870 241 ft 137 kts 159°
2026-05-05 09:36 41.84344 12.26252 29 ft 135 kts 160°
2026-05-05 09:36 41.83565 12.26587 15 ft 94 kts 162°
2026-05-05 09:36 41.83121 12.26771 11 ft 36 kts 163°
2026-05-05 09:36 41.82971 12.26830 14 ft 20 kts 163°
2026-05-05 09:37 41.82843 12.26875 13 ft 18 kts 173°
2026-05-05 09:37 41.82724 12.26870 12 ft 17 kts 185°
2026-05-05 09:37 41.82606 12.26840 10 ft 17 kts 193°
2026-05-05 09:37 41.82487 12.26804 11 ft 18 kts 192°
2026-05-05 09:38 41.82357 12.26778 11 ft 20 kts 178°
2026-05-05 09:38 41.82219 12.26823 11 ft 21 kts 162°
2026-05-05 09:38 41.82073 12.26884 11 ft 23 kts 163°
2026-05-05 09:38 41.81916 12.26949 12 ft 24 kts 162°
2026-05-05 09:39 41.81749 12.27019 13 ft 26 kts 162°
2026-05-05 09:39 41.81574 12.27093 12 ft 27 kts 162°
2026-05-05 09:39 41.81387 12.27170 12 ft 29 kts 163°
2026-05-05 09:39 41.81190 12.27253 12 ft 30 kts 162°
2026-05-05 09:40 41.80992 12.27337 12 ft 26 kts 163°
2026-05-05 09:40 41.80810 12.27329 12 ft 22 kts 189°
2026-05-05 09:40 41.80689 12.27281 12 ft 18 kts 216°
2026-05-05 09:40 41.80630 12.27132 15 ft 18 kts 250°
2026-05-05 09:41 41.80586 12.26972 14 ft 18 kts 250°
2026-05-05 09:41 41.80542 12.26810 15 ft 18 kts 250°
2026-05-05 09:41 41.80498 12.26652 16 ft 18 kts 250°
2026-05-05 09:41 41.80456 12.26495 15 ft 18 kts 250°
2026-05-05 09:42 41.80411 12.26336 15 ft 19 kts 249°
2026-05-05 09:42 41.80370 12.26210 15 ft 12 kts 219°
2026-05-05 09:42 41.80311 12.26274 14 ft 13 kts 116°
2026-05-05 09:42 41.80264 12.26385 14 ft 14 kts 139°
2026-05-05 09:43 41.80167 12.26377 14 ft 15 kts 203°
2026-05-05 09:43 41.80068 12.26314 14 ft 16 kts 205°
2026-05-05 09:43 41.79961 12.26249 15 ft 17 kts 204°
2026-05-05 09:43 41.79846 12.26178 14 ft 19 kts 205°
2026-05-05 09:44 41.79730 12.26092 14 ft 19 kts 206°
2026-05-05 09:44 41.79659 12.26048 14 ft 8 kts 203°
2026-05-05 09:44 41.79617 12.26024 14 ft 3 kts 203°
2026-05-05 09:44 41.79609 12.26004 16 ft 2 kts 267°
2026-05-05 09:45 41.79613 12.25981 14 ft 3 kts 287°
2026-05-05 09:45 41.79621 12.25955 14 ft 3 kts 293°
2026-05-05 09:45 41.79626 12.25942 15 ft 0 kts 295°